Regional Weather Roundup
Issued by NWS

Home | Current Version | Previous Version | Graphics & Text | Print | Product List | Glossary On
Versions: 1 2 3 4 5 6 7 8 9 10 11 12 13 14 15 16 17 18 19 20 21 22 23 24 25 26 27 28 29 30 31 32 33 34 35 36 37 38 39 40 41 42 43 44 45 46 47 48 49 50
000
ASUS43 KMPX 291310
RWRMN
WEATHER ROUNDUP FOR MINNESOTA
NATIONAL WEATHER SERVICE TWIN CITIES/CHANHASSEN MN
800 AM CDT SAT APR 29 2017


NOTE: "FAIR" INDICATES FEW OR NO CLOUDS BELOW 12,000 FEET WITH NO
SIGNIFICANT WEATHER AND/OR OBSTRUCTIONS TO VISIBILITY. N/A MEANS
CURRENT SKY AND/OR WEATHER CONDITIONS ARE NOT AVAILABLE.

MNZ060>063-068>070-291400-
   Twin Cities Metro

CITY           SKY/WX    TMP DP  RH WIND       PRES   REMARKS
TWIN CITIES    PTSUNNY   40  25  55 E13       30.30R
ST PAUL        SUNNY     40  27  59 E9        30.32R
CRYSTAL        MOSUNNY   40  24  53 E8        30.30R
BLAINE         PTSUNNY   43  28  56 SE7       30.30S
LAKEVILLE      PTSUNNY   37  28  70 NE9       30.28R
EDEN PRAIRIE   PTSUNNY   40  26  57 E8        30.28R
SOUTH ST PAUL  CLOUDY    39  26  59 E7        30.30R
LAKE ELMO      FAIR      37  30  75 E7        30.31R
$$
MNZ001>005-007-008-013>017-022>024-027-028-291400-
   Northwest Minnesota

CITY           SKY/WX    TMP DP  RH WIND       PRES   REMARKS
BEMIDJI        SUNNY     31  26  83 CALM      30.28R
HALLOCK        SUNNY     34  27  75 CALM      30.28S
ROSEAU         SUNNY     34  27  75 CALM      30.27R
WARROAD        SUNNY     34  25  69 CALM      30.27S
THIEF RVR FALL SUNNY     35  25  66 CALM      30.30R
CROOKSTON      SUNNY     36  27  69 CALM      30.30R
FOSSTON        SUNNY     34  27  75 CALM      30.28R
DETROIT LAKES  MOSUNNY   34  28  80 CALM      30.28R
MOORHEAD       SUNNY     36  28  75 CALM      30.29R
PARK RAPIDS    SUNNY     34  26  72 CALM      30.26R
MAHNOMEN       FAIR      32  27  83 CALM      30.26S
$$
MNZ006-009>011-018-025>026-291400-
   North Central Minnesota

CITY           SKY/WX    TMP DP  RH WIND       PRES   REMARKS
BAUDETTE       SUNNY     34  28  79 CALM      30.25S
FLAG ISLAND    SUNNY     34  28  80 CALM      30.27R
INTL FALLS     SUNNY     36  27  69 E3        30.26R
WASKISH        SUNNY     34  30  86 CALM      30.28R
BIG FORK       SUNNY     34  28  80 CALM      30.28R
LONGVILLE      CLOUDY    34  32  93 CALM      30.28R
GRAND RAPIDS   CLOUDY    33  28  81 N3        30.29R
CRANE LAKE     SUNNY     27  27 100 CALM      30.30R
ORR            SUNNY     30  23  74 CALM      30.26R
COOK           SUNNY     30  27  86 CALM      30.29R
WALKER         FAIR      33  26  74 CALM      30.28R
$$
MNZ012-019>021-037-291400-
   Northeast Minnesota

CITY           SKY/WX    TMP DP  RH WIND       PRES   REMARKS
DULUTH         SUNNY     38  27  64 CALM      30.28R
ELY            SUNNY     32  27  80 CALM      30.28R
HIBBING        SUNNY     31  27  85 CALM      30.27R
EVELETH        SUNNY     32  28  86 CALM      30.27S
DULUTH HARBOR  SUNNY     36  30  80 S5        30.32R
TWO HARBORS    SUNNY     41  27  56 CALM      30.28R
SILVER BAY     SUNNY     39  25  56 E3        30.27R
GRAND MARAIS     N/A     40  24  53 N7        30.30R
G MARAIS ARPRT SUNNY     30  21  69 CALM      30.27R
$$
MNZ029>031-032-039>041-046>048-054>057-064-291400-
   West Central Minnesota

CITY           SKY/WX    TMP DP  RH WIND       PRES   REMARKS
FERGUS FALLS   CLOUDY    37  25  60 E6        30.29R
WHEATON        CLOUDY    34  27  75 CALM      30.32R
MORRIS         CLOUDY    34  28  80 CALM      30.28R
ALEXANDRIA     MOSUNNY   36  24  62 E5        30.29R
ELBOW LAKE     FAIR      37  27  66 SE5       30.30R
WADENA         CLOUDY    30  25  80 CALM      30.27R
GLENWOOD       CLOUDY    36  27  69 E5        30.29R
APPLETON       CLOUDY    37  28  70 CALM      30.31R
BENSON         CLOUDY    37  27  65 CALM      30.32R
ORTONVILLE     PTSUNNY   36  27  69 CALM      30.30R
MADISON        PTSUNNY   37  30  75 CALM      30.30R
WILLMAR        FAIR      39  28  65 E9        30.32R
$$
MNZ033>034-036-042>043-049>051-058-059-291400-
   Central Minnesota

CITY           SKY/WX    TMP DP  RH WIND       PRES   REMARKS
ST CLOUD       PTSUNNY   37  28  70 SE5       30.31R
SAUK CENTRE    FAIR      34  28  76 E3        30.29R
PAYNESVILLE    PTSUNNY   36  28  73 E5        30.31R
AITKIN         CLOUDY    36  27  69 CALM      30.29R
PINE RIVER     CLOUDY    32  28  86 CALM      30.31R
BRAINERD       CLOUDY    34  30  85 CALM      30.29R
STAPLES        CLOUDY    30  27  86 CALM      30.29R
LONG PRAIRIE   FAIR      32  28  86 CALM      30.30R
LITTLE FALLS   MOSUNNY   34  30  86 CALM      30.29R
LITCHFIELD     CLOUDY    39  30  70 E8        30.29R
BUFFALO        CLOUDY    38  27  64 E8        30.31S
MAPLE LAKE     PTSUNNY   40  30  67 SE8       30.31S
HUTCHINSON     SUNNY     39  30  72 E6        30.30S
$$
MNZ037-044-045-052-053-291400-
   East Central Minnesota

CITY           SKY/WX    TMP DP  RH WIND       PRES   REMARKS
PRINCETON      MOSUNNY   39  30  70 E5        30.32R
MORA           MOSUNNY   36  28  75 CALM      30.33R
CAMBRIDGE      SUNNY     41  28  60 E6        30.30R
RUSH CITY      SUNNY     36  29  76 SE5       30.32R
MOOSE LAKE     MOSUNNY   32  28  86 CALM      30.31R
HINCKLEY       FAIR      36  30  80 CALM      30.32R
CLOQUET        CLOUDY    36  27  69 CALM      30.28R
MCGREGOR       CLOUDY    34  30  86 CALM      30.31R
$$
MNZ071>073-080-081-089-090-097-098-291400-
   Southwest Minnesota

CITY           SKY/WX    TMP DP  RH WIND       PRES   REMARKS
MONTEVIDEO     CLOUDY    37  28  70 SE7       30.30R
GRANITE FALLS  CLOUDY    40  30  66 E8        30.31R
CANBY          CLOUDY    35  28  74 CALM      30.31R
MARSHALL       PTSUNNY   35  27  72 E5        30.30R WCI  31
REDWOOD FALLS  CLOUDY    39  26  59 E9        30.29R
OLIVIA         PTSUNNY   36  28  75 E9        30.29R
PIPESTONE      CLOUDY    37  23  56 E7        30.25R
WINDOM         CLOUDY    37  30  75 NE9       30.23S
WORTHINGTON    PTSUNNY   36  29  75 NE12      30.22S
JACKSON        PTSUNNY   36  30  80 NE15      30.21F
TRACY          CLOUDY    37  30  78 E7        30.28R
SLAYTON        CLOUDY    35  28  76 NE8       30.26R WCI  28
$$
MNZ065>067-074>077-082>085-091>093-291400-
   South Central Minnesota

CITY           SKY/WX    TMP DP  RH WIND       PRES   REMARKS
MANKATO        CLOUDY    38  28  67 E12       30.27R
NEW ULM        CLOUDY    37  28  70 E7        30.27R
ST JAMES       CLOUDY    37  30  75 NE14      30.26R
FAIRMONT       CLOUDY    37  31  78 NE14      30.24R
GLENCOE        CLOUDY    40  32  72 E9        30.28S
FARIBAULT      CLOUDY    37  28  70 NE9       30.26R
OWATONNA       PTSUNNY   36  28  75 NE12      30.25R
WASECA         CLOUDY    36  30  80 NE13G20   30.27R
ALBERT LEA     PTSUNNY   36  28  75 NE14      30.23R
$$
MNZ078>079-086>088-094>096-291400-
   Southeast Minnesota

CITY           SKY/WX    TMP DP  RH WIND       PRES   REMARKS
ROCHESTER      MOSUNNY   37  28  70 E20       30.24R
RED WING       MOSUNNY   39  25  56 E9        30.27R
STANTON        MOSUNNY   38  29  70 NE10      30.25S
DODGE CENTER   CLOUDY    36  28  75 NE15      30.23R
WINONA         CLOUDY    39  28  65 E9G18     30.28R
AUSTIN         CLOUDY    37  30  75 E13       30.23R
PRESTON        CLOUDY    37  29  73 E13G20    30.25R
$$
ABBREVIATIONS USED IN REMARKS
   TC - TEMPERATURES IN CELSIUS
  WCI - WIND CHILL INDEX
   HX - HEAT INDEX
  VSB - VISIBILITY
$$



USA.gov is the U.S. government's official web portal to all federal, state and local government web resources and services.